This is the latest recevied weather packets stored in our database for station/object KF5JED-13. If no packets are shown the sender has not sent any weather packets the latest 10 day(s).
| Time | Temp. | Humidity | Pressure | Rain* | Wind** | Luminosity | Snow |
|---|---|---|---|---|---|---|---|
| 1777847703 | 25.56° C | 25% | 1012.8 hPa | 0 mm | - | 465 W/m² | - |
| 1777847398 | 25.56° C | 25% | 1012.7 hPa | 0 mm | - | 484 W/m² | - |
| 1777847097 | 25.56° C | 24% | 1013 hPa | 0 mm | - | 504 W/m² | - |
| 1777846795 | 25.56° C | 25% | 1012.9 hPa | 0 mm | - | 516 W/m² | - |
| 1777846493 | 25.56° C | 24% | 1013.2 hPa | 0 mm | - | 534 W/m² | - |
| 1777846190 | 26.11° C | 24% | 1013.2 hPa | 0 mm | - | 545 W/m² | - |
| 1777845886 | 25.56° C | 24% | 1013.1 hPa | 0 mm | - | 560 W/m² | - |
| 1777845583 | 25.56° C | 26% | 1013.3 hPa | 0 mm | - | 579 W/m² | - |
| 1777845280 | 25.56° C | 25% | 1013.5 hPa | 0 mm | - | 592 W/m² | - |
| 1777844978 | 25° C | 25% | 1013.6 hPa | 0 mm | - | 609 W/m² | - |
| 1777844675 | 25.56° C | 24% | 1013.6 hPa | 0 mm | - | 631 W/m² | - |
| 1777844372 | 25.56° C | 24% | 1013.9 hPa | 0 mm | - | 654 W/m² | - |
| 1777844071 | 25.56° C | 25% | 1013.8 hPa | 0 mm | - | 685 W/m² | - |
| 1777843766 | 25.56° C | 25% | 1013.8 hPa | 0 mm | - | 700 W/m² | - |
| 1777843464 | 25° C | 25% | 1014.1 hPa | 0 mm | - | 589 W/m² | - |
| 1777843161 | 24.44° C | 25% | 1014.1 hPa | 0 mm | - | 384 W/m² | - |
| 1777842858 | 25° C | 25% | 1014.3 hPa | 0 mm | - | 359 W/m² | - |
| 1777842553 | 25° C | 24% | 1014.2 hPa | 0 mm | - | 533 W/m² | - |
| 1777842250 | 25° C | 25% | 1014.3 hPa | 0 mm | - | 576 W/m² | - |
| 1777841944 | 25° C | 25% | 1014.5 hPa | 0 mm | - | 683 W/m² | - |
| 1777841642 | 25° C | 25% | 1014.6 hPa | 0 mm | - | 736 W/m² | - |
| 1777841338 | 25° C | 24% | 1014.6 hPa | 0 mm | - | 612 W/m² | - |
| 1777841035 | 25.56° C | 24% | 1014.8 hPa | 0 mm | - | 778 W/m² | - |
| 1777840733 | 25° C | 24% | 1014.8 hPa | 0 mm | - | 794 W/m² | - |
| 1777840430 | 25° C | 25% | 1015 hPa | 0 mm | - | 787 W/m² | - |
* Rain latest hour (hover to see other rain measurements)
** Current wind speed in m/s (hover to see current wind gust speed)